{"data":{"norad_id":67971,"intl_designator":"2026-038L","name":"STARLINK-36710","alt_names":[],"object_type":"PAYLOAD","status":"ACTIVE","operator":null,"country":"US","launch_date":"2026-02-25","launch_site_code":"AFWTR","launch_vehicle":null,"mission":null,"orbit_class":"UNKNOWN","rcs_meters":null,"size_class":null,"mass_kg":null,"dimensions":null,"purposes":["comms"],"wikipedia_slug":null,"has_3d_model":false,"image_url":null,"decayed_at":null,"tle_current":{"epoch":"2026-05-24T23:59:07.646784Z","epoch_age_seconds":74795,"freshness":"FRESH","line1":"1 67971U 26038L   26144.99939406  .00014768  00000+0  45873-3 0  9990","line2":"2 67971  97.2836 155.0272 0001763 106.0382 254.1055 15.33453084 14931","mean_motion":15.33453084,"eccentricity":0.0001763,"inclination_deg":97.2836,"raan_deg":155.0272,"arg_perigee_deg":106.0382,"mean_anomaly_deg":254.1055,"bstar":0.00045873,"rev_number":1493,"period_min":93.905709605655,"perigee_km":464.31258571302,"apogee_km":466.72565886173,"semimajor_km":6843.6561222874,"source":"CELESTRAK","updated_at":"2026-05-25T13:38:21.774859Z"}}}